Temp
50 50 51 51 51 52 52 51 51 52 51 52 52 51 51 52 51 44 39 41 36 28 32 35 37 32 31 30 25 25 28 27 25 22 18 21 13 21 16 20 17 15 11 10 9 9 6 27 26 21 27 28 28 26
50 50 51 51 50 50 51 52 51 51 51 51 51 52 52 51 51 47 39 41 40 30 30 36 36 37 39 38 29 22 27 22 27 20 15 18 10 10 13 10 25 16 20 12 16 15 28 28 29 33 32 27 28 28
49 49 50 51 50 50 50 50 51 52 51 51 52 52 51 51 51 49 41 38 38 33 30 31 30 39 40 40 40 27 24 31 29 30 19 17 11 19 8 10 14 22 25 20 18 24 26 30 33 32 31 31 32 32
48 48 49 50 49 50 49 49 50 50 50 50 50 50 50 50 50 49 41 42 39 34 24 26 34 34 40 40 38 38 35 33 32 30 19 14 11 26 16 21 19 23 23 19 19 27 28 29 30 32 34 31 32 31
47 47 48 48 49 49 49 48 49 49 48 48 49 49 49 49 49 47 43 42 41 33 25 20 27 33 36 37 37 36 34 30 25 21 15 14 20 23 19 26 18 27 28 23 20 32 31 32 33 33 31 31 31 31
46 46 47 48 48 48 49 49 49 48 48 48 47 48 48 48 49 41 33 41 43 41 31 20 29 25 32 34 33 32 34 29 26 29 21 23 29 29 21 19 29 33 31 33 31 36 32 34 33 33 31 31 31 29
46 46 47 47 48 48 48 48 49 48 48 48 48 47 48 48 43 34 33 38 44 41 31 25 22 24 29 29 25 29 31 27 32 29 26 25 26 32 23 17 31 30 31 33 33 31 28 31 30 32 31 32 26 22
45 45 46 47 47 47 47 47 47 47 48 48 48 48 48 48 45 38 40 43 44 35 32 25 21 20 29 26 27 30 30 31 30 29 26 25 28 27 21 28 31 32 33 31 31 32 34 35 26 27 22 19 16 18
44 44 43 46 46 46 46 47 47 46 47 47 48 47 38 36 33 35 45 46 42 34 27 26 14 11 28 28 29 28 31 24 30 26 25 28 21 20 25 29 30 31 30 31 26 20 20 23 27 19 16 13 15 15
43 41 43 45 45 45 45 43 43 45 47 46 38 33 29 33 42 43 36 32 31 31 31 21 15 11 24 22 22 24 26 23 18 22 26 23 22 31 31 27 29 31 31 24 20 20 8 11 15 14 14 13 13 13
42 41 42 44 44 44 44 44 44 45 44 35 31 30 34 42 34 31 26 26 27 23 26 18 18 15 22 17 20 27 21 22 16 18 18 13 14 28 32 30 32 30 25 21 19 14 12 13 13 12 9 7 6 4
40 40 41 43 44 44 45 45 44 37 34 34 34 35 34 31 28 22 22 19 22 14 12 21 15 22 18 22 20 22 17 18 14 12 12 7 23 28 24 28 30 18 16 8 7 9 9 9 7 7 3 0 -2 -2
37 40 43 44 44 44 44 44 45 41 39 33 29 25 25 23 18 17 13 9 10 9 18 16 17 21 24 25 21 21 17 15 17 15 11 12 24 17 21 10 3 3 3 2 0 0 -0 -2 -3 -5 -5 -7 -7 -9
41 41 41 41 42 43 44 44 43 37 31 25 21 17 18 15 12 15 7 9 16 14 15 15 19 18 21 21 23 17 19 17 13 11 6 21 14 16 5 0 1 -1 -1 -1 -4 -4 -5 -6 -8 -9 -10 -13 -12 -13
39 40 40 40 41 41 41 41 40 35 28 21 21 14 17 6 -0 -3 -3 7 11 12 22 17 15 23 17 19 21 18 11 11 11 7 9 6 2 3 -1 -4 -3 -5 -6 -9 -11 -9 -8 -9 -11 -17 -22 -22 -20 -20
38 36 32 38 39 40 41 38 34 32 27 23 17 11 0 3 -0 -2 -3 5 10 18 20 21 19 19 17 18 15 13 9 6 9 4 -4 -0 1 -0 -2 -3 -5 -5 -7 -10 -12 -12 -12 -13 -14 -18 -26 -26 -24 -23
33 17 35 36 37 37 36 30 29 24 22 20 9 -13 -4 -0 6 2 4 10 17 20 17 18 15 14 20 16 13 10 5 2 -2 -1 -4 -3 -3 -5 -6 -7 -7 -9 -12 -10 -13 -14 -16 -20 -27 -23 -17 -19 -25 -25
18 23 35 34 30 27 19 16 21 17 10 4 1 -7 -8 -10 -3 -0 7 11 16 21 19 17 19 15 14 11 7 4 -2 -7 -6 -10 -9 -10 -12 -9 -8 -9 -7 -8 -12 -13 -13 -19 -19 -19 -19 -18 -22 -24 -25 -24
20 26 32 31 28 16 12 9 12 9 3 -6 3 3 -3 -7 -2 -0 0 7 11 12 12 12 12 13 9 -0 -2 -2 -3 -4 -8 -7 -10 -8 -7 -8 -9 -10 -11 -13 -15 -17 -16 -14 -18 -19 -18 -20 -21 -22 -20 -22
31 31 30 26 25 15 9 6 7 8 2 -0 -2 -1 1 -0 -3 -7 -5 3 9 10 10 4 -8 -11 -9 -9 -8 -6 -4 -2 -5 -5 -7 -8 -8 -9 -10 -10 -9 -11 -13 -17 -17 -15 -20 -20 -22 -24 -25 -23 -22 -20
21 20 24 17 11 8 5 3 -1 0 -0 -4 -2 3 1 2 -3 -7 -5 2 -1 -9 -8 -14 -13 -11 -8 -10 -10 -10 -7 -7 -3 -6 -7 -10 -10 -9 -11 -11 -12 -13 -12 -13 -14 -19 -21 -21 -21 -25 -25 -23 -25 -24
13 23 13 17 8 4 1 1 0 1 -0 -8 -1 -1 -6 -5 -9 -8 -3 -7 -12 -15 -16 -16 -15 -13 -11 -11 -12 -12 -11 -8 -8 -8 -6 -7 -10 -10 -10 -12 -13 -20 -23 -24 -26 -24 -25 -25 -26 -26 -25 -22 -19 -18
15 15 9 6 0 -5 -9 -2 -3 -2 -4 -5 -7 -4 -9 -13 -10 -3 -11 -15 -16 -13 -17 -16 -15 -14 -14 -12 -11 -9 -10 -8 -9 -9 -9 -11 -12 -14 -15 -23 -24 -22 -23 -23 -28 -27 -22 -18 -19 -19 -19 -17 -16 -13
7 -4 -5 -7 -6 -11 -11 -9 -5 -7 -7 -9 -8 -8 -11 -12 -10 -6 -17 -20 -14 -13 -15 -16 -14 -11 -9 -9 -11 -13 -13 -14 -15 -14 -14 -12 -15 -19 -23 -23 -28 -27 -24 -25 -24 -24 -23 -21 -15 -15 -12 -11 -11 -10
-1 -17 -12 -15 -13 -14 -16 -16 -12 -7 -11 -9 -8 -8 -11 -17 -10 -14 -16 -18 -14 -14 -14 -13 -11 -11 -13 -12 -11 -12 -15 -19 -15 -16 -18 -22 -27 -25 -23 -26 -26 -24 -26 -23 -22 -23 -20 -17 -13 -9 -10 -12 -12 -10
-21 -24 -21 -29 -20 -20 -20 -19 -19 -18 -14 -11 -15 -13 -17 -13 -15 -22 -19 -17 -18 -17 -17 -19 -20 -16 -12 -13 -12 -11 -15 -23 -24 -21 -22 -28 -26 -24 -25 -21 -20 -16 -22 -20 -19 -17 -12 -9 -10 -10 -9 -9 -7 -9
-21 -26 -26 -23 -22 -21 -16 -16 -15 -14 -18 -18 -20 -15 -10 -17 -21 -18 -19 -14 -16 -21 -22 -21 -23 -20 -19 -17 -16 -18 -19 -22 -18 -16 -20 -24 -22 -23 -18 -17 -16 -12 -15 -14 -13 -11 -9 -7 -8 -8 -8 -8 -9 -8
-29 -28 -25 -25 -25 -33 -31 -28 -24 -24 -22 -22 -19 -21 -20 -21 -24 -17 -15 -11 -13 -15 -16 -17 -17 -17 -16 -12 -11 -10 -9 -9 -11 -12 -13 -11 -12 -10 -12 -13 -9 0 -7 -9 -8 -10 -13 -11 -11 -11 -11 -10 -8 -8
-31 -29 -28 -25 -30 -29 -31 -30 -29 -27 -26 -27 -20 -19 -19 -14 -16 -17 -14 -12 -12 -13 -12 -11 -8 -10 -10 -8 -6 -7 -7 -7 -6 -8 -10 -10 -9 -9 -10 -11 -12 -12 -13 -18 -8 -3 -8 -10 -10 -9 -10 -10 -9 -15
-30 -36 -24 -23 -24 -26 -27 -30 -29 -28 -27 -27 -26 -19 -17 -15 -12 -9 -11 -12 -13 -13 -13 -11 -8 -8 -9 -9 -10 -8 -8 -7 -9 -11 -13 -12 -10 -8 -10 -11 -10 -10 -13 -18 -11 -9 -5 -9 -11 -16 -14 -16 -16 -16
-34 -33 -28 -25 -27 -30 -29 -31 -29 -28 -26 -24 -24 -21 -20 -19 -12 -6 -8 -8 -7 -7 -9 -10 -10 -10 -11 -11 -11 -11 -11 -8 -7 -8 -9 -10 -9 -10 -9 -9 -9 -13 -20 -20 -18 -18 -14 -15 -20 -19 -19 -18 -17 -16
-23 -26 -24 -24 -28 -35 -38 -30 -28 -27 -27 -24 -22 -20 -19 -17 -18 -13 -9 -8 -10 -11 -10 -10 -11 -11 -9 -8 -7 -8 -7 -8 -7 -8 -8 -6 -6 -5 -5 -7 -10 -14 -14 -14 -17 -17 -17 -18 -17 -17 -17 -17 -17 -19
-26 -26 -26 -23 -24 -24 -23 -24 -21 -20 -19 -20 -20 -20 -20 -17 -18 -13 -7 -8 -12 -13 -12 -12 -11 -8 -10 -10 -8 -8 -8 -8 -8 -3 -3 -2 -3 -3 -5 -5 -5 -10 -12 -15 -16 -18 -17 -18 -18 -18 -19 -19 -19 -19
MSLP
1005.85 1006.11 1006.23 1006.49 1006.69 1006.88 1007.12 1007.49 1007.73 1007.96 1008.39 1008.81 1009.12 1009.68 1010.16 1010.54 1010.90 1011.95 1012.72 1012.43 1013.25 1013.82 1013.95 1013.71 1013.69 1013.73 1013.78 1014.28 1015.59 1017.37 1018.01 1018.79 1019.43 1020.38 1021.46 1022.12 1022.72 1022.34 1022.37 1022.25 1022.14 1022.91 1024.13 1024.58 1025.16 1025.08 1023.07 1020.33 1020.71 1020.72 1019.25 1019.47 1019.86 1020.46
1004.91 1005.13 1005.27 1005.55 1005.94 1006.18 1006.48 1006.69 1007.11 1007.46 1007.78 1008.19 1008.52 1008.93 1009.41 1009.81 1010.27 1011.22 1012.05 1012.46 1012.71 1013.76 1014.37 1014.38 1013.86 1013.52 1013.09 1012.93 1014.58 1016.62 1016.23 1017.03 1018.11 1019.71 1020.83 1021.55 1022.41 1022.51 1021.76 1022.01 1021.32 1021.77 1021.06 1022.25 1022.20 1020.95 1019.48 1019.35 1018.44 1018.16 1018.30 1018.76 1019.14 1019.48
1003.97 1004.16 1004.34 1004.63 1005.08 1005.44 1005.75 1006.09 1006.45 1006.74 1007.21 1007.62 1007.98 1008.35 1008.65 1009.21 1009.74 1010.40 1011.22 1012.25 1013.21 1014.10 1014.41 1014.33 1013.52 1012.57 1012.74 1012.68 1012.72 1014.48 1016.36 1016.13 1017.17 1017.50 1019.75 1020.96 1021.63 1021.30 1021.60 1021.20 1020.80 1020.23 1019.84 1020.23 1020.46 1019.12 1018.86 1018.60 1018.08 1017.79 1017.95 1018.21 1018.09 1018.38
1002.97 1003.24 1003.58 1003.76 1004.29 1004.69 1005.03 1005.34 1005.80 1006.17 1006.70 1007.15 1007.51 1007.82 1008.13 1008.67 1009.21 1009.87 1010.80 1011.66 1012.75 1013.55 1013.89 1013.23 1012.98 1012.54 1012.00 1012.26 1012.78 1013.07 1014.16 1015.59 1016.26 1017.40 1018.95 1020.19 1021.02 1019.56 1019.83 1019.37 1019.54 1018.57 1018.65 1018.26 1018.42 1018.21 1017.85 1017.83 1017.32 1017.12 1017.17 1017.44 1017.71 1017.80
1001.92 1002.31 1002.66 1003.07 1003.53 1003.93 1004.40 1005.01 1005.37 1005.68 1006.20 1006.66 1007.05 1007.42 1007.79 1008.29 1008.84 1009.52 1010.19 1010.86 1011.51 1012.54 1012.88 1013.41 1013.15 1012.24 1011.96 1012.23 1012.64 1013.32 1014.03 1014.94 1016.23 1017.81 1018.66 1019.28 1019.15 1019.06 1019.02 1018.66 1017.91 1016.80 1016.09 1017.03 1017.05 1016.26 1016.48 1016.32 1016.06 1016.13 1016.63 1016.80 1016.85 1017.20
1001.04 1001.50 1001.78 1002.24 1002.68 1003.20 1003.53 1004.11 1004.70 1005.28 1005.77 1006.33 1006.77 1007.21 1007.63 1008.12 1008.52 1009.14 1009.89 1010.14 1010.31 1011.10 1012.34 1013.07 1012.30 1011.95 1011.80 1012.13 1012.76 1013.26 1013.75 1014.41 1015.52 1016.36 1017.43 1017.54 1017.18 1017.29 1017.99 1017.45 1015.27 1014.16 1014.89 1015.11 1015.12 1014.72 1015.53 1015.44 1015.46 1015.40 1015.85 1015.93 1016.01 1016.39
1000.19 1000.70 1001.00 1001.49 1002.03 1002.49 1002.97 1003.44 1003.98 1004.69 1005.37 1006.03 1006.52 1007.21 1007.45 1007.86 1008.40 1009.03 1009.33 1009.16 1009.32 1010.79 1011.48 1012.23 1012.28 1011.96 1011.89 1012.24 1012.96 1013.20 1013.58 1014.14 1014.63 1015.93 1016.32 1016.32 1016.32 1016.27 1016.19 1015.34 1012.34 1013.58 1013.72 1013.83 1014.15 1014.90 1015.33 1014.92 1015.08 1014.70 1015.19 1015.23 1015.64 1015.95
999.56 999.98 1000.38 1000.80 1001.32 1001.94 1002.40 1003.05 1003.69 1004.33 1005.01 1005.58 1006.14 1006.64 1006.95 1007.67 1008.27 1008.52 1008.70 1009.11 1009.48 1010.15 1010.81 1011.32 1011.95 1012.63 1011.89 1012.29 1012.88 1012.90 1013.50 1014.10 1014.21 1014.44 1015.05 1015.12 1015.70 1015.36 1014.18 1011.71 1012.98 1012.86 1012.71 1013.52 1013.47 1013.76 1013.98 1014.01 1014.54 1014.99 1015.26 1015.84 1016.48 1017.01
998.83 999.18 999.39 1000.18 1000.81 1001.44 1002.13 1002.79 1003.48 1004.14 1004.81 1005.42 1005.92 1006.48 1007.28 1007.69 1007.91 1008.02 1008.23 1008.66 1009.36 1009.88 1010.11 1010.69 1011.62 1012.24 1011.94 1012.19 1012.55 1013.15 1013.08 1013.37 1013.34 1013.40 1013.69 1014.36 1014.10 1012.94 1010.35 1011.34 1011.70 1011.59 1012.11 1012.25 1012.72 1013.64 1014.10 1014.75 1014.69 1015.19 1015.91 1016.53 1017.06 1017.64
998.30 998.79 998.28 999.51 1000.44 1001.19 1002.11 1002.88 1003.40 1003.77 1004.45 1005.20 1006.30 1007.12 1007.11 1007.08 1006.94 1007.53 1008.51 1009.01 1009.34 1009.19 1009.82 1010.57 1011.09 1012.30 1012.15 1012.25 1012.66 1013.09 1012.80 1012.70 1012.71 1012.96 1013.06 1012.92 1011.97 1009.27 1010.09 1010.76 1010.70 1010.74 1011.14 1012.23 1013.66 1014.27 1014.85 1015.20 1015.52 1015.99 1016.48 1017.13 1017.76 1018.45
998.13 998.52 998.85 999.59 1000.52 1001.28 1002.06 1002.60 1003.25 1003.75 1004.54 1005.48 1006.25 1006.54 1006.65 1006.56 1007.17 1007.90 1008.37 1008.83 1009.23 1009.48 1009.40 1009.70 1010.25 1011.51 1011.89 1011.99 1012.38 1012.37 1012.32 1012.38 1012.75 1012.46 1012.68 1012.23 1010.45 1008.87 1010.00 1010.28 1009.98 1010.55 1011.40 1012.32 1013.10 1013.71 1014.44 1014.98 1015.67 1016.67 1017.77 1018.58 1019.28 1019.93
998.47 999.03 999.79 1000.38 1000.84 1001.44 1001.97 1002.47 1003.20 1004.16 1004.72 1004.97 1005.65 1006.40 1006.53 1006.41 1007.11 1007.82 1008.08 1008.80 1009.15 1009.36 1009.42 1009.42 1009.75 1009.73 1010.80 1010.92 1011.39 1011.78 1011.88 1012.14 1011.77 1011.94 1012.40 1011.58 1008.91 1009.04 1009.48 1009.58 1010.00 1011.25 1012.30 1013.50 1014.31 1014.95 1015.71 1016.35 1016.93 1017.73 1018.91 1019.95 1020.70 1021.39
999.88 1000.10 1000.41 1000.73 1001.22 1001.63 1002.09 1002.47 1002.84 1003.79 1004.55 1005.36 1006.09 1006.63 1006.54 1006.88 1007.37 1008.00 1008.59 1009.11 1009.36 1009.24 1009.02 1009.19 1009.41 1009.32 1010.09 1010.13 1010.54 1010.72 1010.83 1011.10 1011.49 1012.07 1011.60 1010.20 1008.93 1009.10 1009.46 1010.64 1012.00 1012.78 1013.82 1014.83 1015.87 1016.56 1017.36 1018.39 1018.97 1019.66 1020.72 1021.51 1022.23 1023.04
1000.48 1000.80 1001.08 1001.29 1001.47 1001.74 1002.05 1002.30 1002.73 1003.78 1004.47 1005.35 1006.03 1006.72 1007.21 1007.84 1008.34 1008.41 1008.90 1008.62 1008.03 1007.96 1008.26 1008.55 1008.99 1008.91 1009.09 1009.44 1009.37 1009.61 1009.82 1010.54 1011.35 1011.90 1011.31 1009.82 1009.65 1009.66 1010.76 1011.57 1012.97 1014.42 1015.36 1016.37 1017.51 1018.33 1019.17 1019.99 1020.84 1021.60 1022.34 1022.87 1023.48 1024.16
1001.40 1001.48 1001.62 1001.77 1001.82 1001.96 1002.22 1002.42 1003.02 1003.62 1004.24 1005.35 1006.15 1007.03 1007.98 1008.50 1009.28 1009.63 1009.34 1009.06 1008.47 1008.01 1007.77 1008.34 1008.51 1008.38 1008.68 1008.67 1008.51 1009.19 1010.30 1010.93 1011.61 1011.82 1011.29 1011.08 1011.66 1011.84 1012.55 1013.47 1014.40 1015.60 1016.84 1018.19 1019.16 1019.76 1020.56 1021.30 1022.09 1023.26 1024.07 1024.19 1024.33 1024.80
1002.10 1002.27 1002.47 1002.40 1002.29 1002.19 1002.32 1002.84 1003.15 1003.35 1004.20 1005.41 1006.63 1008.14 1009.51 1010.08 1010.80 1010.79 1010.37 1009.93 1008.98 1008.31 1007.83 1007.75 1007.88 1007.76 1007.93 1008.04 1008.52 1009.11 1010.63 1011.71 1011.87 1012.57 1013.00 1013.29 1013.55 1014.39 1014.68 1015.46 1016.77 1017.98 1018.22 1019.00 1019.95 1020.73 1021.62 1022.49 1023.32 1024.17 1024.77 1024.95 1025.05 1025.17
1002.52 1003.32 1003.01 1002.81 1002.73 1002.79 1002.95 1003.37 1003.79 1004.20 1005.02 1005.87 1008.21 1008.92 1009.98 1010.51 1010.94 1010.94 1010.38 1009.94 1009.16 1008.70 1008.60 1008.46 1008.13 1007.89 1008.25 1008.77 1009.48 1010.08 1011.40 1012.49 1013.59 1014.37 1015.33 1015.45 1015.91 1016.29 1016.80 1017.09 1017.58 1018.63 1020.31 1020.37 1020.74 1021.71 1022.76 1023.74 1024.42 1024.81 1025.40 1025.60 1025.30 1025.17
1003.63 1003.61 1003.09 1002.99 1002.63 1003.32 1004.61 1005.03 1004.99 1005.68 1007.24 1008.83 1009.88 1010.94 1011.22 1011.70 1011.98 1011.80 1011.30 1010.65 1009.81 1009.46 1009.43 1009.20 1009.24 1009.55 1010.22 1010.98 1011.80 1012.83 1013.92 1015.32 1016.21 1016.85 1017.20 1017.56 1017.73 1018.32 1018.30 1018.50 1019.57 1019.50 1021.14 1021.79 1021.81 1022.75 1023.64 1024.22 1024.72 1025.13 1025.50 1025.57 1025.37 1025.19
1003.62 1003.73 1003.69 1003.56 1003.48 1004.42 1006.06 1007.27 1007.41 1008.02 1009.72 1010.49 1011.08 1011.80 1012.55 1013.08 1013.03 1012.88 1012.46 1011.80 1011.26 1010.81 1010.55 1010.93 1011.83 1012.78 1013.49 1014.27 1015.18 1015.59 1016.33 1017.02 1017.56 1018.24 1018.63 1018.95 1019.06 1019.33 1019.80 1019.94 1020.31 1021.16 1022.07 1022.51 1023.06 1023.62 1024.19 1024.43 1024.77 1025.24 1025.36 1025.28 1025.66 1025.44
1003.81 1003.87 1004.09 1004.41 1004.13 1005.40 1007.55 1008.90 1008.94 1009.43 1011.01 1011.81 1012.25 1012.88 1013.39 1013.75 1013.90 1013.85 1013.47 1013.03 1012.60 1012.43 1013.06 1014.44 1016.06 1017.16 1017.65 1018.23 1018.68 1018.77 1018.40 1018.46 1018.73 1018.87 1019.15 1019.00 1019.87 1020.22 1020.82 1021.14 1021.34 1022.04 1022.69 1023.31 1023.72 1023.95 1024.56 1025.04 1025.06 1025.15 1025.11 1025.16 1025.42 1024.93
1004.52 1004.73 1004.92 1005.08 1006.36 1007.50 1009.32 1010.46 1011.14 1011.71 1012.20 1012.74 1013.29 1013.46 1014.08 1014.32 1014.89 1015.11 1015.06 1014.78 1014.93 1017.11 1018.25 1019.25 1019.68 1019.96 1020.22 1020.24 1020.31 1020.12 1019.61 1019.37 1019.25 1019.05 1018.88 1019.75 1020.46 1020.92 1021.55 1021.98 1022.46 1022.95 1023.32 1023.88 1024.31 1024.74 1025.04 1025.30 1025.09 1024.98 1024.90 1024.91 1024.63 1024.18
1005.55 1005.36 1005.96 1006.27 1007.81 1009.56 1011.01 1012.04 1012.24 1012.66 1012.99 1013.86 1014.00 1014.54 1015.31 1015.86 1016.41 1016.86 1016.92 1017.31 1019.67 1021.41 1021.94 1021.91 1021.82 1021.75 1021.33 1021.17 1021.27 1021.04 1020.72 1020.25 1020.02 1019.69 1019.65 1020.22 1021.04 1021.67 1022.36 1022.88 1023.36 1023.91 1024.23 1024.60 1024.93 1025.15 1025.34 1024.88 1024.67 1024.67 1024.71 1024.59 1024.23 1023.75
1006.33 1006.58 1007.86 1008.74 1009.88 1011.53 1013.64 1013.19 1013.28 1013.69 1014.09 1014.91 1015.24 1015.79 1016.96 1017.48 1017.76 1017.73 1019.22 1021.10 1022.36 1023.09 1023.34 1023.36 1023.11 1022.76 1022.45 1022.13 1021.98 1021.74 1021.43 1021.17 1020.98 1020.92 1020.91 1021.20 1021.79 1022.38 1023.00 1023.65 1024.16 1024.34 1024.80 1024.90 1024.72 1024.94 1025.01 1024.37 1024.42 1024.36 1024.27 1024.08 1023.78 1023.43
1008.23 1010.46 1011.74 1012.62 1013.43 1014.85 1014.72 1014.83 1014.75 1014.99 1015.27 1015.75 1016.28 1017.35 1018.25 1018.62 1018.56 1019.09 1021.44 1022.93 1023.74 1023.90 1023.97 1023.89 1023.52 1022.87 1022.45 1022.26 1022.36 1022.39 1022.47 1022.42 1022.26 1022.24 1022.35 1022.36 1022.98 1023.81 1024.18 1024.20 1024.01 1024.11 1024.27 1024.15 1024.35 1024.41 1024.27 1024.04 1023.90 1023.88 1023.81 1023.67 1023.38 1023.10
1010.77 1016.60 1016.83 1017.09 1017.25 1017.13 1017.37 1017.30 1017.07 1016.86 1017.51 1017.65 1017.86 1018.55 1019.30 1019.61 1020.00 1021.65 1023.37 1024.41 1024.63 1024.81 1024.92 1024.59 1024.05 1023.75 1023.45 1023.14 1023.05 1023.20 1023.35 1023.52 1023.41 1023.40 1023.28 1023.48 1024.02 1024.44 1024.64 1024.13 1023.76 1023.86 1024.08 1024.25 1024.51 1024.46 1023.95 1023.54 1023.46 1023.43 1023.29 1023.13 1022.94 1022.69
1017.00 1021.13 1021.33 1021.42 1021.15 1020.53 1020.64 1020.16 1019.95 1019.80 1019.42 1019.52 1020.08 1020.14 1020.27 1020.61 1022.08 1024.19 1025.18 1025.66 1025.87 1025.93 1026.08 1025.98 1025.64 1024.89 1024.18 1023.97 1023.87 1023.77 1024.08 1024.17 1023.93 1023.90 1024.08 1024.09 1024.47 1024.62 1024.75 1024.72 1024.48 1023.64 1023.48 1023.67 1023.73 1023.72 1023.36 1023.10 1023.08 1022.95 1022.75 1022.51 1022.37 1022.23
1021.90 1023.96 1024.16 1024.10 1023.80 1023.30 1022.83 1022.46 1022.06 1021.91 1022.21 1022.64 1022.48 1021.63 1021.38 1022.89 1024.74 1025.76 1025.99 1026.17 1026.39 1026.24 1026.25 1026.07 1026.10 1025.65 1025.13 1024.54 1024.11 1023.87 1024.01 1024.23 1024.03 1023.96 1023.91 1023.95 1023.92 1023.96 1023.97 1023.89 1023.68 1023.40 1022.93 1022.85 1022.82 1022.87 1022.83 1022.68 1022.55 1022.40 1022.21 1021.97 1021.86 1021.77
1025.67 1026.34 1026.50 1026.00 1025.48 1025.62 1025.46 1025.37 1025.51 1025.96 1025.88 1025.58 1024.83 1024.44 1024.84 1025.83 1026.81 1026.65 1026.46 1026.43 1026.40 1026.11 1025.71 1025.45 1025.45 1025.30 1024.98 1024.45 1024.00 1023.67 1023.33 1023.17 1023.18 1023.36 1023.46 1023.42 1023.36 1023.36 1023.38 1023.32 1023.13 1022.79 1022.56 1022.44 1022.32 1022.20 1022.26 1022.22 1022.06 1021.90 1021.77 1021.56 1021.27 1021.14
1027.60 1027.79 1027.57 1027.27 1026.97 1027.52 1028.50 1028.63 1028.71 1028.73 1028.72 1027.96 1026.98 1026.94 1027.15 1027.28 1027.48 1027.41 1026.99 1026.69 1026.28 1026.00 1025.64 1025.36 1024.96 1024.65 1024.58 1024.30 1024.07 1023.94 1023.69 1023.42 1023.24 1023.51 1023.66 1023.68 1023.50 1023.36 1023.20 1023.04 1022.88 1022.64 1022.42 1022.19 1021.88 1021.62 1021.46 1021.44 1021.33 1021.22 1021.06 1021.00 1020.79 1020.72
1029.21 1028.98 1028.28 1027.90 1028.57 1029.92 1030.46 1030.53 1030.25 1030.05 1029.75 1029.36 1028.94 1028.30 1028.10 1027.88 1027.67 1027.26 1026.92 1026.63 1026.31 1026.19 1026.08 1025.94 1025.62 1025.21 1025.14 1024.88 1024.78 1024.62 1024.53 1024.38 1024.44 1024.58 1024.39 1024.07 1023.81 1023.43 1023.14 1022.86 1022.56 1022.25 1022.07 1021.98 1021.83 1021.51 1021.22 1021.05 1020.97 1020.93 1020.89 1020.87 1020.90 1020.71
1029.92 1029.54 1029.09 1029.26 1030.35 1031.00 1031.28 1031.19 1030.70 1030.37 1029.86 1029.47 1029.17 1028.63 1028.56 1028.13 1027.54 1027.40 1027.26 1027.11 1026.95 1026.76 1026.52 1026.43 1026.32 1026.27 1026.05 1025.83 1025.63 1025.29 1024.91 1024.62 1024.61 1024.47 1024.27 1023.93 1023.50 1023.13 1022.79 1022.43 1022.12 1021.88 1021.75 1021.75 1021.78 1021.68 1021.35 1021.15 1021.03 1020.88 1020.69 1020.50 1020.26 1020.19
1030.35 1030.58 1030.37 1030.54 1031.04 1031.42 1031.61 1031.06 1030.43 1029.84 1029.47 1029.18 1029.15 1028.73 1028.56 1028.15 1028.14 1028.05 1028.37 1027.90 1027.65 1027.47 1027.46 1027.28 1027.00 1026.79 1026.60 1026.36 1026.02 1025.77 1025.52 1025.16 1024.68 1024.27 1023.76 1023.34 1022.89 1022.55 1022.24 1021.96 1021.71 1021.52 1021.44 1021.39 1021.35 1021.40 1021.08 1020.85 1020.64 1020.43 1020.20 1019.88 1019.63 1019.40
1031.16 1031.14 1031.19 1031.36 1031.34 1031.33 1030.93 1030.44 1029.67 1029.16 1028.75 1028.90 1028.88 1028.71 1028.56 1028.38 1028.70 1028.81 1028.61 1028.49 1028.51 1028.32 1028.01 1027.78 1027.46 1026.96 1026.80 1026.48 1025.93 1025.64 1025.48 1025.08 1024.76 1024.10 1023.64 1023.09 1022.61 1022.18 1021.91 1021.71 1021.47 1021.42 1021.36 1021.28 1021.19 1021.04 1020.78 1020.50 1020.24 1019.92 1019.61 1019.33 1019.02 1018.71
Wind_Speed
22 22 18 19 21 21 20 17 20 18 18 19 18 20 20 19 19 8 3 4 5 3 4 3 3 4 3 2 7 5 5 1 2 4 5 5 4 7 3 3 8 8 9 6 3 4 10 9 6 8 7 3 6 7
26 25 22 21 21 22 22 20 19 17 17 17 18 19 19 18 18 13 3 3 3 4 3 2 4 4 2 6 8 2 4 6 6 4 1 3 1 1 5 5 3 3 9 9 13 10 4 8 8 13 5 6 7 7
26 26 23 23 19 20 20 20 19 18 19 19 19 18 20 19 19 16 3 4 4 2 4 1 5 5 4 5 5 8 2 5 4 3 5 3 4 4 5 6 2 4 5 5 5 6 6 8 12 5 7 9 8 10
25 25 24 22 20 19 16 20 18 17 19 16 17 17 18 21 17 17 4 5 4 2 3 5 4 4 4 6 4 4 7 6 6 3 3 4 4 3 4 4 6 7 6 5 4 6 7 9 9 10 12 10 11 9
24 23 23 22 23 23 17 15 14 14 15 13 16 12 12 14 17 9 6 6 7 5 3 3 2 6 4 8 10 6 9 7 4 2 3 4 2 3 1 1 4 9 13 6 8 16 13 12 8 8 9 13 14 13
21 24 25 22 19 19 19 22 19 14 14 15 13 14 12 10 13 3 2 5 10 6 3 3 2 3 6 8 9 8 8 4 4 5 3 3 5 6 5 5 15 18 5 13 15 18 9 13 10 9 10 13 12 10
21 22 22 23 21 18 21 20 19 19 17 17 15 13 12 12 5 4 3 1 17 8 3 3 4 2 2 4 1 3 4 3 4 3 5 4 4 8 4 9 20 8 12 15 12 7 10 16 11 9 10 14 5 2
21 18 21 23 20 17 17 16 18 17 16 13 12 12 11 12 11 6 4 5 5 4 3 4 2 2 3 4 3 3 4 4 5 4 2 5 4 4 9 15 10 15 18 10 14 14 19 16 2 8 2 4 5 6
22 19 23 25 19 16 17 17 17 16 15 13 13 12 1 2 3 2 17 12 4 3 3 3 6 6 2 2 3 1 4 5 4 7 6 7 4 11 10 12 16 19 15 19 5 3 4 10 14 4 6 3 5 4
16 11 19 19 17 17 17 15 11 16 15 10 5 3 4 5 6 12 4 3 5 4 4 5 3 2 4 2 2 3 2 3 4 4 4 7 11 26 9 8 11 15 16 7 4 9 1 5 8 6 7 2 2 3
18 16 15 18 17 18 16 15 16 15 10 2 4 3 1 7 3 3 5 6 5 4 5 4 6 6 3 5 4 3 4 4 5 6 8 4 10 18 14 17 18 12 9 9 6 3 4 4 5 7 5 5 5 5
10 17 17 16 14 12 12 15 18 7 3 6 6 3 1 4 5 5 6 3 5 7 2 7 5 5 3 4 4 5 5 4 7 4 5 5 13 11 10 17 15 6 8 8 4 8 6 7 5 7 7 6 5 6
10 9 10 11 11 10 11 13 15 13 13 3 2 3 3 2 4 7 9 3 3 4 5 3 2 4 3 3 3 5 7 7 5 6 6 8 7 7 11 5 5 5 7 8 6 7 9 7 6 4 7 5 6 6
10 7 6 4 3 5 9 11 16 11 4 3 5 6 6 4 4 5 6 5 5 4 6 4 4 4 3 5 4 5 5 4 6 5 9 8 8 8 5 4 7 7 7 9 8 8 8 8 7 6 6 4 5 4
9 8 7 4 4 2 2 4 13 2 2 3 3 5 5 2 1 2 2 1 2 1 6 3 2 3 2 4 5 3 4 5 5 8 5 2 7 3 3 3 8 9 8 7 4 7 7 7 7 5 3 3 3 2
7 9 6 9 7 4 3 7 2 2 4 4 3 3 1 4 4 3 2 0 2 1 2 2 3 4 5 4 6 8 7 8 7 5 2 4 4 4 4 7 7 5 7 9 7 6 7 6 6 5 1 1 2 3
10 2 7 11 10 6 13 2 2 2 1 3 2 2 3 2 5 4 3 3 2 2 2 2 4 5 0 3 4 4 6 3 2 2 3 5 3 4 4 8 9 10 5 7 6 6 5 4 4 4 5 1 1 3
2 3 6 14 5 6 4 5 2 3 4 2 2 2 2 1 2 3 2 4 1 4 2 1 2 4 3 3 3 2 3 3 3 1 3 4 5 5 4 8 6 9 6 4 6 5 4 4 5 3 2 3 2 2
1 1 9 12 6 5 4 4 3 4 2 1 2 2 3 1 1 1 2 3 1 1 2 2 3 3 2 2 2 2 1 1 0 1 1 3 4 5 5 6 7 6 5 4 4 3 3 3 2 2 2 1 1 2
7 9 10 13 7 3 4 3 3 4 2 1 3 3 2 2 1 2 3 4 2 0 3 3 2 2 2 2 2 3 3 3 2 1 1 4 3 4 3 2 4 5 4 3 3 4 3 2 1 1 1 2 2 2
7 4 8 5 4 7 5 3 4 2 2 3 1 2 3 2 3 4 3 4 5 5 3 2 1 2 1 1 2 3 4 5 3 2 1 3 2 3 3 2 3 2 2 2 3 2 2 3 3 1 1 1 3 3
1 8 3 5 5 4 5 5 3 2 3 1 2 3 3 3 3 3 4 6 5 2 2 2 3 3 4 4 4 4 4 5 3 2 6 8 3 3 3 3 3 2 2 3 3 4 3 3 1 1 1 3 3 2
7 5 5 6 6 7 2 2 3 3 3 1 1 3 3 2 2 3 5 3 1 1 1 2 3 3 3 3 4 3 4 5 3 3 3 3 3 2 4 2 2 4 1 2 2 3 2 2 2 2 2 1 1 2
11 9 8 6 6 2 2 4 2 3 3 4 3 3 3 2 4 4 4 2 2 2 3 4 3 4 1 2 2 3 4 3 2 3 3 3 4 2 1 1 1 2 3 2 2 2 2 2 2 1 1 1 2 1
8 11 7 7 5 6 6 4 5 4 3 3 2 3 2 3 4 5 3 3 4 4 6 6 5 3 2 2 2 2 2 2 1 2 3 2 3 3 3 2 2 3 3 3 1 2 2 1 1 2 2 2 3 4
11 6 6 4 5 4 3 4 4 2 3 3 3 2 1 3 6 3 2 3 3 3 4 5 4 5 3 3 2 3 3 2 2 3 3 2 2 3 1 2 2 4 3 3 3 2 2 2 3 4 4 4 5 4
8 6 4 1 1 2 2 2 1 4 5 5 4 5 3 6 4 2 2 1 2 3 3 3 2 2 3 3 2 2 2 2 2 2 2 2 2 3 3 2 2 3 2 3 3 3 4 4 4 4 5 4 4 5
3 4 5 7 3 2 4 4 5 5 3 4 1 7 5 4 1 3 2 3 4 4 4 3 3 3 3 3 3 3 2 2 3 2 1 0 1 1 2 1 2 6 2 2 3 3 4 4 4 5 5 7 7 4
4 4 2 5 4 5 5 3 1 1 3 2 2 4 3 2 2 2 3 5 5 2 3 4 4 1 1 1 4 4 5 6 5 4 3 2 2 1 3 3 3 3 2 3 6 5 6 6 7 7 8 7 6 3
5 2 4 4 6 5 2 1 2 2 1 1 1 2 2 1 1 2 2 3 5 4 3 3 5 5 5 3 3 4 4 5 5 4 3 3 4 6 5 5 5 4 2 2 4 5 8 4 5 4 4 4 4 5
2 3 3 5 4 1 1 2 2 1 1 1 0 2 2 2 1 7 7 6 6 7 8 8 7 6 6 6 6 6 6 4 8 6 4 4 5 5 5 5 5 4 2 2 3 3 5 4 3 6 7 8 8 8
4 4 3 4 2 2 0 2 1 2 2 2 2 1 0 2 4 3 5 6 6 8 9 8 8 7 5 4 4 3 4 5 7 7 8 7 6 6 6 5 4 4 4 4 3 3 4 6 6 7 8 10 10 8
2 2 2 2 2 3 3 3 1 2 2 2 2 1 1 2 4 0 1 4 1 2 4 4 5 6 6 7 10 5 5 7 10 13 13 15 14 12 9 7 5 3 4 4 4 4 7 9 9 10 10 10 11 11
Wind_Direction
250 244 243 247 245 237 239 226 226 219 216 213 211 208 211 213 199 153 202 163 131 150 281 210 230 154 93 134 139 176 96 326 79 137 150 179 177 209 152 179 171 156 160 195 134 201 269 181 91 183 206 173 176 198
247 243 244 245 245 235 234 231 222 218 220 221 219 217 212 210 206 173 155 161 113 112 240 245 270 258 270 178 125 267 141 153 160 115 202 106 175 68 160 228 143 223 190 179 188 203 235 196 198 221 159 183 208 201
251 246 241 237 238 238 234 235 233 223 219 224 221 224 215 207 200 189 131 127 87 128 285 223 229 246 165 188 164 127 302 160 178 159 151 175 190 125 164 238 147 258 157 214 93 216 221 202 239 240 194 214 216 211
244 244 238 233 227 226 231 227 226 221 221 219 220 222 220 204 207 194 155 161 136 117 195 277 340 230 212 155 151 127 135 118 109 115 126 144 168 178 197 171 176 198 152 195 275 286 254 244 230 237 252 229 238 226
236 238 234 227 226 231 219 216 215 212 211 222 219 213 207 206 212 211 168 176 167 164 187 249 285 239 178 168 161 149 138 127 128 95 113 205 182 115 299 102 243 190 223 212 234 245 238 252 242 227 223 236 231 227
233 237 225 223 226 227 226 212 208 199 200 197 212 211 203 199 196 121 197 184 188 181 190 198 258 230 192 171 173 184 170 118 136 140 180 227 218 152 185 209 241 233 210 224 241 252 243 251 248 246 219 240 232 217
236 227 226 222 226 224 217 214 219 198 193 192 186 202 204 201 200 161 187 182 179 153 188 206 272 284 187 104 62 111 141 177 145 159 202 182 193 182 194 221 236 215 228 238 237 236 261 250 240 242 227 243 227 209
238 228 235 215 213 215 201 200 195 187 190 186 189 195 189 208 206 206 140 87 158 162 190 199 227 336 179 149 167 158 144 170 189 188 161 188 150 202 235 237 237 244 249 249 239 216 234 256 218 238 201 138 195 210
245 210 233 203 194 193 188 181 182 179 180 189 195 199 68 174 182 205 164 170 160 212 209 165 158 223 182 93 108 160 154 195 162 200 198 158 176 222 219 210 221 232 226 240 237 186 208 222 250 216 174 173 194 182
207 246 210 173 179 178 174 163 178 175 180 175 91 132 208 198 178 126 121 175 203 193 207 200 86 188 134 117 111 126 185 205 184 228 133 203 229 238 222 216 229 232 235 159 176 262 143 251 216 197 199 148 127 118
193 172 162 156 158 160 164 169 176 172 150 98 157 199 192 163 82 160 190 192 175 207 200 195 165 139 251 137 159 218 183 176 195 221 184 205 247 241 226 234 240 237 193 193 188 140 122 158 183 155 126 96 92 87
129 129 138 147 142 149 165 173 174 133 151 168 128 92 155 186 172 187 181 144 189 212 253 162 197 165 171 132 129 178 184 190 218 129 148 229 246 240 214 226 239 154 141 132 145 140 119 96 85 112 116 116 106 111
50 94 132 144 153 165 181 192 188 145 123 77 100 159 150 219 191 193 176 221 170 191 184 174 166 129 134 179 168 178 197 209 106 190 218 225 241 223 220 160 119 107 114 119 105 90 98 98 72 79 109 90 103 102
86 92 93 104 136 192 197 198 163 138 110 154 161 182 189 185 237 186 182 177 226 137 154 130 124 149 172 177 180 209 197 134 203 203 227 240 221 234 165 113 122 154 129 122 122 119 115 114 100 84 93 116 113 106
62 69 74 86 122 130 176 152 170 118 121 153 149 204 193 215 25 258 252 16 310 200 135 101 59 146 176 203 199 153 172 214 207 223 230 297 336 338 109 100 125 133 127 118 117 115 117 115 110 100 62 60 84 103
78 75 30 28 24 11 235 183 188 175 147 166 151 102 334 67 317 3 17 82 270 153 73 81 159 214 205 207 191 197 165 208 231 215 287 320 356 0 99 94 76 76 113 119 108 102 105 108 124 143 163 195 195 180
56 62 350 349 327 71 33 108 151 190 323 181 178 26 106 120 169 190 154 207 254 65 154 168 218 227 172 225 229 183 203 224 348 13 340 357 13 87 89 92 104 105 106 119 111 99 104 109 102 88 102 293 283 243
74 294 355 343 124 75 39 19 40 63 79 35 97 302 36 71 78 16 5 359 25 153 137 282 344 222 222 214 272 352 21 18 8 8 25 10 34 30 70 100 107 108 122 119 92 104 117 124 119 147 178 264 319 357
182 60 30 11 58 87 75 20 4 92 61 195 61 58 84 126 359 23 348 332 345 348 84 69 216 200 201 60 341 6 46 265 177 46 66 46 78 85 85 93 100 102 115 112 135 135 142 145 134 175 203 151 148 270
51 34 38 31 36 90 88 33 10 83 113 110 37 35 76 61 302 11 8 13 348 54 60 35 41 360 347 9 353 303 322 336 196 172 111 75 62 85 98 114 114 122 111 88 85 112 86 50 310 219 203 168 124 295
47 0 35 49 49 50 67 30 58 60 98 81 293 18 63 34 32 15 15 331 62 35 48 16 21 323 316 319 321 296 337 347 333 306 131 140 147 123 124 104 112 81 107 128 129 103 124 185 214 210 143 265 242 240
314 33 49 33 77 61 74 15 70 52 57 125 54 40 38 40 27 9 308 52 51 22 3 332 341 322 336 4 336 338 310 310 298 359 69 109 124 139 150 145 126 123 129 179 165 175 214 236 224 195 181 264 272 286
28 32 55 18 75 45 312 352 80 15 79 68 45 73 43 29 329 305 74 68 80 9 296 299 299 276 288 304 300 324 349 346 23 29 60 73 85 86 104 104 140 128 138 274 184 171 203 229 228 199 250 288 331 315
33 45 30 39 27 58 1 31 40 55 48 36 58 85 40 353 321 63 73 21 315 327 340 321 304 311 284 328 0 352 356 349 22 49 23 83 85 31 9 185 178 216 194 167 154 191 219 233 224 220 245 271 295 289
68 6 8 16 14 36 38 23 4 50 68 25 79 61 14 339 68 56 56 337 337 0 358 347 351 357 334 327 351 342 8 15 30 55 355 50 97 15 347 329 283 238 155 101 270 215 246 214 227 246 246 254 288 299
68 349 39 340 358 46 350 62 33 17 3 63 40 334 359 62 62 51 351 314 311 330 345 336 334 337 5 17 350 1 340 343 69 60 299 176 158 140 158 55 4 317 202 188 161 207 252 238 241 258 270 277 279 286
54 350 343 12 317 286 57 19 6 47 48 26 353 351 25 65 56 318 312 23 313 280 252 248 228 260 277 308 291 283 264 206 213 190 274 225 218 194 147 153 259 252 240 206 213 210 235 249 252 253 262 263 246 250
97 25 20 337 27 12 97 45 34 34 4 348 271 33 65 38 319 319 308 339 312 302 288 266 236 242 271 292 309 315 318 260 234 242 302 42 32 66 46 315 297 313 310 250 242 232 221 232 243 253 255 264 274 247
33 338 305 6 40 50 46 44 52 18 346 330 49 67 76 43 304 298 300 319 310 315 5 3 354 318 220 22 34 20 13 10 32 49 42 10 336 315 357 337 324 314 299 290 291 277 240 233 239 244 252 257 267 265
341 25 353 25 54 36 355 346 343 337 314 12 317 113 89 332 309 299 323 338 6 2 338 347 3 15 21 20 2 38 34 43 41 30 346 339 322 315 312 311 314 308 301 311 303 304 310 331 325 332 311 297 281 281
314 5 53 35 77 294 342 328 284 272 297 33 20 69 106 224 279 47 26 13 31 39 37 30 33 26 23 16 8 358 0 7 359 340 295 278 278 287 296 298 293 286 283 282 283 280 285 292 264 280 284 283 282 275
349 32 5 55 4 283 155 52 9 75 356 56 21 25 99 75 54 36 5 5 23 31 27 23 13 348 338 338 331 285 303 321 328 323 316 321 316 313 303 295 289 283 284 281 264 259 268 271 282 277 280 282 281 275
346 8 33 52 23 23 9 333 188 113 90 80 55 63 72 89 88 28 23 36 26 314 335 324 325 343 331 336 325 309 326 334 317 324 322 318 318 324 324 312 308 322 310 303 289 278 284 279 278 277 276 273 274 276